www.pogodaiklimat.ru

Погода и климат >> Архив погоды >> Австралия >> Западная Австралия >> Брум


ПОГОДА в Бруме

  • Прогноз погоды в Бруме
  • Монитор погоды в Бруме

АРХИВ ПОГОДЫ в Бруме

Время (UTC), дата Ветер
(напр.,м/с)
 
Видим.   Явления Облачность Т
(С)
Тd
(С)
f
(%)
Тe
(С)
Тes
(С)
Комфортность P
(гПа)
Po
(гПа)
Тmin
(С)
Tmax
(С)
R
(мм)
R24
(мм)
S
(см)
13 15.09 ЮВ 1 н/о н/о +19.0 +16.7 87 +22 +22 комфорт 1015.3 1014.3 +33.5
15 15.09 штиль 0 н/о н/о +18.7 +17.2 91 +20 +20 1014.5 1013.5
16 15.09 Ю 2 н/о н/о +21.7 +20.6 93 +27 +27 душно 1014.2 1013.2
18 15.09 Ю 4 н/о н/о +22.8 +20.2 85 +29 +29 очень
душно
1013.1 1012.1
19 15.09 С 1 н/о н/о +17.8 +17.0 95 +19 +19 1013.8 1012.8
21 15.09 СВ 2 н/о н/о +16.2 +15.9 98 +16 +16 1014.9 1013.9
22 15.09 штиль 0 н/о н/о +16.7 +16.2 97 +17 +17 1014.8 1013.8
00 16.09 СВ 1 н/о н/о +25.1 +11.5 43 +27 +27 жарко 1016.4 1015.4
01 16.09 З 2 н/о н/о +28.1 +10.3 33 +29 +29 жарко 1016.2 1015.2 +15.5
03 16.09 З 4 н/о н/о +29.0 +15.7 44 +32 +32 душно 1015.2 1014.2
04 16.09 З 5 н/о н/о +29.0 +17.4 50 +33 +33 очень
душно
1014.6 1013.6
06 16.09 З 7 н/о н/о +29.4 +16.2 45 +33 +33 душно 1012.9 1011.9
07 16.09 З 7 н/о н/о +28.6 +18.1 53 +33 +33 очень
душно
1012.7 1011.7
09 16.09 З 6 н/о н/о +26.7 +19.4 64 +32 +32 очень
душно
1012.5 1011.5
10 16.09 СЗ 4 н/о н/о +25.1 +19.3 70 +30 +30 душно 1012.7 1011.7
12 16.09 С 2 н/о н/о +20.0 +17.9 88 +24 +24 комфорт 1014.6 1013.6
13 16.09 С 1 н/о н/о +19.9 +18.6 92 +24 +24 комфорт 1014.8 1013.8 +30.5
15 16.09 В 2 н/о н/о +19.1 +18.0 93 +21 +21 комфорт 1014.4 1013.4
16 16.09 В 1 н/о н/о +17.1 +16.3 95 +18 +18 1014.1 1013.1
18 16.09 С 2 н/о н/о +16.6 +15.9 96 +17 +17 1013.5 1012.5
19 16.09 С 1 н/о н/о +16.2 +15.5 96 +18 +18 1013.4 1012.4
21 16.09 В 2 н/о н/о +19.0 +18.5 97 +21 +21 комфорт 1013.9 1012.9
22 16.09 С 3 н/о н/о +16.9 +16.6 98 +17 +17 1015.1 1014.1
00 17.09 СЗ 4 н/о н/о +25.8 +19.6 69 +31 +31 очень
душно
1016.4 1015.4
01 17.09 С 4 н/о в посл. час дождь {туман} н/о +27.2 +18.0 57 +32 +32 очень
душно
1017.3 1016.3 +16.1
03 17.09 СЗ 5 н/о н/о +29.3 +16.3 45 +32 +32 душно 1016.6 1015.6
04 17.09 СЗ 6 н/о 1/0
[]
+28.9 +16.5 47 +32 +41 душно 1015.7 1014.7
06 17.09 СЗ 6 н/о н/о +28.9 +16.2 46 +32 +32 душно 1014.1 1013.1
07 17.09 СЗ 7 н/о н/о +29.3 +17.3 48 +33 +33 душно 1013.6 1012.6
09 17.09 СЗ 6 н/о н/о +26.5 +19.7 66 +32 +32 очень
душно
1013.4 1012.4
10 17.09 З 4 н/о н/о +25.0 +20.4 76 +31 +31 очень
душно
1014.0 1013.0
12 17.09 СЗ 3 н/о н/о +23.9 +21.2 85 +30 +30 очень
душно
1015.2 1014.2
13 17.09 С 3 н/о н/о +23.3 +21.3 89 +31 +31 очень
душно
1016.1 1015.1 +30.3
15 17.09 штиль 0 н/о н/о +19.9 +19.4 97 +23 +23 комфорт 1015.7 1014.7
16 17.09 штиль 0 500 м н/о +18.0 +17.7 98 +18 +18 1015.3 1014.3
18 17.09 штиль 0 н/о н/о +16.7 +16.2 97 +17 +17 1014.8 1013.8
19 17.09 штиль 0 100 м 8/8 <50 м
[]
+17.0 +16.8 99 +17 +17 1014.8 1013.8
21 17.09 штиль 0 н/о н/о +16.3 +15.8 97 +16 +16 1015.6 1014.6
22 17.09 штиль 0 100 м 10/10 <50 м
[]
+19.8 +19.3 97 +23 +23 комфорт 1016.0 1015.0
00 18.09 Ю 3 н/о н/о +22.9 +21.7 93 +31 +31 очень
душно
1017.1 1016.1
01 18.09 ЮЗ 4 н/о н/о +26.8 +18.8 62 +32 +32 очень
душно
1017.0 1016.0 +16.4
03 18.09 ЮЗ 4 н/о н/о +31.8 +15.3 37 +34 +34 душно 1015.5 1014.5
04 18.09 З 4 н/о {туман} 1/0
[]
+30.6 +19.4 51 +36 +49 очень
душно
1014.7 1013.7
06 18.09 З 9 н/о н/о +28.1 +21.4 67 +36 +36 очень
душно
1012.9 1011.9
07 18.09 З 8 н/о {туман} н/о +27.7 +21.2 68 +35 +35 очень
душно
1012.7 1011.7
09 18.09 СЗ 6 н/о н/о +26.5 +21.5 74 +34 +34 очень
душно
1013.5 1012.5
10 18.09 СЗ 4 н/о н/о +25.3 +21.5 79 +32 +32 очень
душно
1014.2 1013.2
12 18.09 СЗ 3 н/о н/о +24.6 +22.0 85 +32 +32 очень
душно
1015.4 1014.4
13 18.09 СЗ 3 н/о н/о +24.2 +22.4 90 +32 +32 очень
душно
1015.5 1014.5 +32.7
15 18.09 С 2 н/о н/о +22.1 +21.3 95 +29 +29 очень
душно
1015.5 1014.5
16 18.09 З 3 н/о н/о +23.7 +23.0 96 +31 +31 очень
душно
1014.4 1013.4
18 18.09 С 2 н/о н/о +20.3 +19.8 97 +25 +25 комфорт 1013.6 1012.6
19 18.09 Ю 2 н/о н/о +22.7 +21.5 93 +30 +30 очень
душно
1012.9 1011.9
21 18.09 СВ 3 н/о н/о +18.8 +18.3 97 +20 +20 1014.1 1013.1
22 18.09 С 2 н/о н/о +19.2 +19.0 99 +22 +22 комфорт 1014.5 1013.5
00 19.09 СЗ 3 н/о н/о +26.1 +21.6 76 +33 +33 очень
душно
1015.7 1014.7
01 19.09 СЗ 4 н/о в посл. час дождь {туман} н/о +27.2 +20.3 66 +34 +34 очень
душно
1016.0 1015.0 +18.4
03 19.09 СЗ 5 н/о н/о +28.4 +20.0 60 +35 +35 очень
душно
1014.8 1013.8
04 19.09 СЗ 6 н/о н/о +28.8 +18.1 52 +33 +33 очень
душно
1013.9 1012.9
06 19.09 СЗ 7 н/о н/о +28.7 +19.7 58 +35 +35 очень
душно
1012.4 1011.4
07 19.09 СЗ 7 н/о н/о +28.2 +20.6 63 +35 +35 очень
душно
1012.2 1011.2
09 19.09 СЗ 6 н/о н/о +26.7 +21.9 75 +34 +34 очень
душно
1012.4 1011.4
10 19.09 З 5 н/о н/о +25.3 +22.5 84 +33 +33 очень
душно
1012.8 1011.8
12 19.09 З 5 н/о н/о +24.7 +22.8 89 +33 +33 очень
душно
1013.6 1012.6
13 19.09 З 4 н/о н/о +24.4 +22.8 91 +32 +32 очень
душно
1014.1 1013.1 +30.2
15 19.09 З 4 н/о н/о +23.9 +22.3 91 +31 +31 очень
душно
1013.9 1012.9
16 19.09 З 4 н/о н/о +23.9 +21.8 88 +31 +31 очень
душно
1013.3 1012.3
18 19.09 З 5 н/о н/о +23.8 +19.6 77 +29 +29 душно 1012.4 1011.4
19 19.09 З 4 н/о н/о +23.3 +19.7 80 +30 +30 очень
душно
1012.3 1011.3
21 19.09 СЗ 2 н/о н/о +19.5 +18.4 93 +23 +23 комфорт 1013.4 1012.4
22 19.09 З 3 н/о н/о +22.8 +20.8 88 +30 +30 очень
душно
1014.0 1013.0
00 20.09 Ю 5 н/о н/о +26.2 +21.0 73 +33 +33 очень
душно
1014.9 1013.9
01 20.09 Ю 5 н/о 3/3 300 м
[]
+26.3 +19.3 65 +32 +36 очень
душно
1015.1 1014.1 +19.4
03 20.09 З 4 н/о н/о +29.0 +19.7 57 +35 +35 очень
душно
1014.3 1013.3
04 20.09 З 3 н/о н/о +29.5 +18.1 50 +34 +34 очень
душно
1013.4 1012.4
06 20.09 З 4 н/о н/о +31.5 +17.0 42 +35 +35 очень
душно
1012.1 1011.1
07 20.09 З 4 н/о н/о +31.1 +15.6 39 +34 +34 душно 1011.7 1010.7
09 20.09 З 4 н/о н/о +28.3 +18.5 55 +33 +33 очень
душно
1012.2 1011.2
10 20.09 З 5 н/о н/о +25.7 +21.5 78 +33 +33 очень
душно
1012.3 1011.3
12 20.09 З 3 н/о н/о +24.5 +21.0 81 +31 +31 очень
душно
1013.2 1012.2
13 20.09 З 3 н/о н/о +24.0 +20.8 82 +30 +30 очень
душно
1013.5 1012.5 +33.1
15 20.09 штиль 0 н/о н/о +21.2 +19.6 91 +26 +26 душно 1013.6 1012.6
16 20.09 С 2 н/о 1/0
[]
+20.2 +19.1 93 +25 +25 комфорт 1013.4 1012.4
18 20.09 ЮВ 2 н/о н/о +20.5 +14.5 68 +24 +24 комфорт 1013.1 1012.1
19 20.09 ЮВ 4 н/о н/о +23.5 +1.5 24 +23 +23 комфорт 1013.1 1012.1
21 20.09 В 4 н/о н/о +20.0 +0.5 27 +20 +20 1014.4 1013.4
22 20.09 В 3 н/о н/о +18.5 +1.6 32 +19 +19 1015.1 1014.1
00 21.09 ЮВ 6 н/о н/о +22.8 -1.7 19 +22 +22 комфорт 1016.1 1015.1
01 21.09 В 9 н/о н/о +27.7 -6.7 10 +24 +24 комфорт 1016.0 1015.0 +17.9
03 21.09 ЮВ 6 н/о н/о +30.7 +1.0 15 +28 +28 жарко 1014.9 1013.9
04 21.09 ЮВ 6 н/о н/о +32.1 -2.2 11 +29 +29 жарко 1013.9 1012.9
06 21.09 Ю 5 н/о н/о +33.2 -3.5 9 +29 +29 жарко 1012.3 1011.3
07 21.09 Ю 5 н/о н/о +33.3 -4.2 9 +29 +29 жарко 1011.7 1010.7
09 21.09 ЮЗ 6 н/о н/о +31.0 +7.6 23 +30 +30 жарко 1011.8 1010.8
10 21.09 З 5 н/о н/о +27.5 +11.4 37 +28 +28 жарко 1012.6 1011.6
12 21.09 ЮЗ 5 н/о н/о +26.2 +14.7 49 +29 +29 жарко 1013.8 1012.8
13 21.09 ЮЗ 4 н/о н/о +26.2 +13.9 47 +28 +28 жарко 1014.3 1013.3 +34.1
15 21.09 Ю 3 н/о н/о +24.5 +18.7 70 +29 +29 душно 1014.3 1013.3
16 21.09 Ю 5 н/о н/о +26.2 +8.4 32 +26 +26 жарко 1014.2 1013.2
18 21.09 ЮВ 5 н/о н/о +24.7 +2.8 24 +24 +24 комфорт 1013.9 1012.9
19 21.09 ЮВ 5 н/о 1/0
[]
+23.8 +2.4 25 +23 +23 комфорт 1014.1 1013.1
21 21.09 В 5 н/о н/о +21.8 +2.8 29 +22 +22 комфорт 1015.2 1014.2
22 21.09 В 3 н/о н/о +19.0 -0.7 26 +19 +19 1015.6 1014.6
00 22.09 ЮВ 5 н/о н/о +23.4 -2.0 18 +22 +22 комфорт 1016.4 1015.4
01 22.09 В 9 н/о н/о +29.4 -3.0 12 +26 +26 жарко 1016.1 1015.1 +18.5
03 22.09 В 5 н/о н/о +33.6 -1.8 10 +30 +30 жарко 1014.8 1013.8
04 22.09 ЮВ 6 н/о 3/0
[]
+34.2 -0.5 11 +31 +38 жарко 1013.8 1012.8
06 22.09 Ю 5 н/о н/о +34.8 -1.1 10 +31 +31 жарко 1012.4 1011.4
07 22.09 З 5 н/о н/о +34.3 +9.2 21 +33 +33 жарко 1012.3 1011.3
09 22.09 З 6 н/о н/о +27.8 +18.2 56 +33 +33 очень
душно
1013.6 1012.6
10 22.09 СЗ 4 н/о н/о +26.0 +18.8 65 +31 +31 очень
душно
1014.4 1013.4

 

Местоположение метеостанции Брум (Западная Австралия, Австралия): широта -17.95 долгота 122.23 высота над уровнем моря 9 м.

В архиве по умолчанию представлена погода в Бруме за последнюю неделю. Архивные данные за месяц целиком и за предыдущие месяцы, начиная с января 2011 года, Вы можете получить, выбрав интересующий диапазон дат из раскрывающегося списка и нажав кнопку "Ввод!".


*Определитесь, кто Вы:
робот инопланетянин человек

Внимание! Время в таблицах - всемирное. Для получения местного времени необходимо прибавить поправку, которая равна 8 ч.

Смотрите также архив погоды в соседних городах и на ближайших метеорологических станциях:

Погода в Робак Запад (Западная Австралия, Австралия) (11 км)
Погода в Дерби (Северная территория, Австралия) (165 км)
Погода на Базе ВВС Curtin (Западная Австралия, Австралия) (173 км)
Погода в Мандоре (Западная Австралия, Австралия) (246 км)
Погода на Острове Адель (Западная Австралия, Австралия) (289 км)
Погода в Роули Шоалс (Западная Австралия, Австралия) (351 км)
Погода в Фицрой-Кроссинге (Западная Австралия, Австралия) (353 км)
Погода в Телфере (Западная Австралия, Австралия) (418 км)
Погода в Марбл-баре (Западная Австралия, Австралия) (443 км)
Погода на Острове Брауз (Западная Австралия, Австралия) (450 км)

Пояснения к столбцам:

Ветер - указаны скорость ветра в м/с - средняя за 10 мин, порывы в срок и между сроками (в фигурных скобках) и направление, откуда дует ветер: С - северный, СВ - северо-восточный, В - восточный, ЮВ - юго-восточный, Ю - южный, ЮЗ - юго-западный, З - западный, СЗ - северо-западный.
Видимость - горизонтальная дальность видимости в метрах или километрах. При видимости от 1 до 10 км при отсутствии осадков обычно наблюдается дымка, при ухудшении видимости до 1 км и менее - туман. В сухую погоду видимость может ухудшаться дымом, пылью или мглою.
Явления - указаны атмосферные явления, наблюдавшиеся в срок или в последний час перед сроком; фигурными скобками обозначены явления, наблюдавшиеся между сроками (за 1-3 часа до срока); квадратными скобками обозначены град или гололедные отложения с указанием их диаметра в мм.
Облачность - указаны через наклонную черту общая и нижняя облачность в баллах и высота нижней границы облаков в метрах; квадратными скобками обозначены формы облаков: Ci - перистые, Cs - перисто-слоистые, Cc - перисто-кучевые, Ac - высококучевые, As - высокослоистые, Sc - слоисто-кучевые, Ns - слоисто-дождевые, Cu - кучевые, Cb - кучево-дождевые. Подробнее классификацию облаков см. в Атласе облаков (PDF).
T - Температура воздуха - температура, измеренная на высоте 2 м над землей.
Td - Температура точки росы - температура, при понижении до которой содержащийся в воздухе водяной пар достигнет насыщения.
f - Относительная влажность воздуха - влажноcть воздуха, измеренная на высоте 2 м над землей.
Te - Эффективная температура - температура, которую ощущает одетый по сезону человек в тени. Характеристика душности погоды. При расчете учитывается влияние влажности воздуха и скорости ветра на теплоощущения человека.
Tes - Эффективная температура на солнце - температура, которую ощущает человек, с поправкой на солнечный нагрев. Характеристика знойности погоды. Зависит от высоты солнца над горизонтом, облачности и скорости ветра. Ночью, в пасмурную погоду, а также при ветре 12 м/с и более поправка равна нулю.
P - Атмосферное давление - приведенное к уровню моря атмосферное давление.
Po - Атмосферное давление - измеренное на уровне метеостанции атмосферное давление.
Tmin - Минимальная температура - минимум температуры воздуха на высоте 2 м над землей.
Tmax - Максимальная температура - максимум температуры воздуха на высоте 2 м над землей.
R - Количество осадков - Количество выпавших осадков за период времени, мм. При наведении курсора мыши на число - период времени, за который выпало указанное количество осадков.
R24 - Количество осадков - Количество выпавших осадков за 24 часа, мм.
S - Снежный покров - Высота снежного покрова, см. При наведении курсора мыши на число - состояние снежного покрова и степень покрытия местности в баллах.